Weather in Myitkyina

Myanmar     25°24′55″N   97°22′47″E
temp.,
°C
wind,
m/s
gust,
m/s
humid.,
%
clouds,
%
prec.,
mm/h
press.,
hPa
HPBL,
m
16 april, fri
fri1600:30+24nne1235100 0.0 100661
03:30+22nne234199 0.0 100665
06:30+22nne1343100 0.0 100885
09:30+34n0122100 0.0 1010832
12:30+39ssw1216100 0.0 10073235
15:30+36w1118100 0.0 10053343
18:30+29n1128100 0.0 100511
21:30+25ene1130100 0.0 100814
17 april, sat
sat1700:30+23nne113277 0.0 100815
03:30+22nne113478 0.0 100821
06:30+23ssw0036100 0.0 101142
09:30+27sw163599 0.0 1013819
12:30+28wsw133795 0.0 1011733
15:30+30nnw123493 0.0 1007920
18:30+24nne115444 0.2 100819
21:30+23nne126120 0.1 101164
18 april, sun
sun1800:30+18nne23916 0.6 101246
03:30+17nne24966 0.8 101177
06:30+18nne14957 2.1 1013122
09:30+29n11415 0.0 1013792
12:30+36sw22245 0.0 10082528
15:30+35nw122532 0.1 10052019
18:30+26n234922 0.1 100557
21:30+22nne23604 0.0 100749
19 april, mon
mon1900:30+18nne228631 0.6 100751
03:30+17nne249415 0.6 100789
06:30+18nne1394100 1.3 1009101
09:30+29nnw12424 0.2 1010637
12:30+35ssw24251 0.2 10062653
15:30+36ssw242366 0.1 10012537
18:30+24ne2466100 0.3 100497
21:30+21n257882 0.1 1007141
20 april, tue
tue2000:30+19nne258265 0.1 1007165
03:30+18nne24901 0.0 1006105
06:30+19nne14810 0.0 1008150
09:30+30nnw11370 0.0 1008864
12:30+37sw23225 0.0 10052777
15:30+33nnw222769 0.0 1003983
18:30+27n254418 0.0 1003117
21:30+25nne26497 0.0 1006165